Year,Month,Day,Hour,Minute,Value (Times are PST for temperature in C)
2013,09,17,00,00,9.70
2013,09,17,00,01,9.70
2013,09,17,00,02,9.70
2013,09,17,00,03,9.70
2013,09,17,00,04,9.60
2013,09,17,00,05,9.60
2013,09,17,00,06,9.60
2013,09,17,00,07,9.60
2013,09,17,00,08,9.60
2013,09,17,00,09,9.60
2013,09,17,00,10,9.60
2013,09,17,00,11,9.60
2013,09,17,00,12,9.60
2013,09,17,00,13,9.60
2013,09,17,00,14,9.50
2013,09,17,00,15,9.50
2013,09,17,00,16,9.50
2013,09,17,00,17,9.50
2013,09,17,00,18,9.50
2013,09,17,00,19,9.50
2013,09,17,00,20,9.50
2013,09,17,00,21,9.50
2013,09,17,00,22,9.50
2013,09,17,00,23,9.40
2013,09,17,00,24,9.40
2013,09,17,00,25,9.40
2013,09,17,00,26,9.40
2013,09,17,00,27,9.40
2013,09,17,00,28,9.40
2013,09,17,00,29,9.40
2013,09,17,00,30,9.40
2013,09,17,00,31,9.40
2013,09,17,00,32,9.40
2013,09,17,00,33,9.40
2013,09,17,00,34,9.30
2013,09,17,00,35,9.30
2013,09,17,00,36,9.30
2013,09,17,00,37,9.30
2013,09,17,00,38,9.30
2013,09,17,00,39,9.30
2013,09,17,00,40,9.30
2013,09,17,00,41,9.30
2013,09,17,00,42,9.20
2013,09,17,00,43,9.20
2013,09,17,00,44,9.20
2013,09,17,00,45,9.20
2013,09,17,00,46,9.20
2013,09,17,00,47,9.20
2013,09,17,00,48,9.20
2013,09,17,00,49,9.20
2013,09,17,00,50,9.20
2013,09,17,00,51,9.20
2013,09,17,00,52,9.20
2013,09,17,00,53,9.20
2013,09,17,00,54,9.20
2013,09,17,00,55,9.20
2013,09,17,00,56,9.20
2013,09,17,00,57,9.20
2013,09,17,00,58,9.20
2013,09,17,00,59,9.20
2013,09,17,01,00,9.20
2013,09,17,01,01,9.20
2013,09,17,01,02,9.20
2013,09,17,01,03,9.20
2013,09,17,01,04,9.20
2013,09,17,01,05,9.20
2013,09,17,01,06,9.10
2013,09,17,01,07,9.20
2013,09,17,01,08,9.10
2013,09,17,01,09,9.20
2013,09,17,01,10,9.10
2013,09,17,01,11,9.10
2013,09,17,01,12,9.20
2013,09,17,01,13,9.20
2013,09,17,01,14,9.10
2013,09,17,01,15,9.10
2013,09,17,01,16,9.20
2013,09,17,01,17,9.20
2013,09,17,01,18,9.20
2013,09,17,01,19,9.20
2013,09,17,01,20,9.20
2013,09,17,01,21,9.20
2013,09,17,01,22,9.10
2013,09,17,01,23,9.10
2013,09,17,01,24,9.10
2013,09,17,01,25,9.10
2013,09,17,01,26,9.10
2013,09,17,01,27,9.10
2013,09,17,01,28,9.10
2013,09,17,01,29,9.10
2013,09,17,01,30,9.10
2013,09,17,01,31,9.10
2013,09,17,01,32,9.10
2013,09,17,01,33,9.10
2013,09,17,01,34,9.10
2013,09,17,01,35,9.10
2013,09,17,01,36,9.10
2013,09,17,01,37,9.10
2013,09,17,01,38,9.10
2013,09,17,01,39,9.10
2013,09,17,01,40,9.10
2013,09,17,01,41,9.00
2013,09,17,01,42,9.00
2013,09,17,01,43,9.00
2013,09,17,01,44,9.00
2013,09,17,01,45,9.00
2013,09,17,01,46,8.90
2013,09,17,01,47,8.90
2013,09,17,01,48,8.90
2013,09,17,01,49,8.90
2013,09,17,01,50,8.90
2013,09,17,01,51,8.90
2013,09,17,01,52,8.90
2013,09,17,01,53,8.90
2013,09,17,01,54,8.80
2013,09,17,01,55,8.80
2013,09,17,01,56,8.80
2013,09,17,01,57,8.80
2013,09,17,01,58,8.80
2013,09,17,01,59,8.80
2013,09,17,02,00,8.80
2013,09,17,02,01,8.80
2013,09,17,02,02,8.80
2013,09,17,02,03,8.80
2013,09,17,02,04,8.80
2013,09,17,02,05,8.80
2013,09,17,02,06,8.80
2013,09,17,02,07,8.80
2013,09,17,02,08,8.80
2013,09,17,02,09,8.80
2013,09,17,02,10,8.80
2013,09,17,02,11,8.80
2013,09,17,02,12,8.80
2013,09,17,02,13,8.80
2013,09,17,02,14,8.80
2013,09,17,02,15,8.80
2013,09,17,02,16,8.80
2013,09,17,02,17,8.80
2013,09,17,02,18,8.80
2013,09,17,02,19,8.80
2013,09,17,02,20,8.80
2013,09,17,02,21,8.80
2013,09,17,02,22,8.80
2013,09,17,02,23,8.80
2013,09,17,02,24,8.80
2013,09,17,02,25,8.80
2013,09,17,02,26,8.80
2013,09,17,02,27,8.70
2013,09,17,02,28,8.70
2013,09,17,02,29,8.70
2013,09,17,02,30,8.70
2013,09,17,02,31,8.70
2013,09,17,02,32,8.70
2013,09,17,02,33,8.70
2013,09,17,02,34,8.70
2013,09,17,02,35,8.70
2013,09,17,02,36,8.70
2013,09,17,02,37,8.70
2013,09,17,02,38,8.70
2013,09,17,02,39,8.70
2013,09,17,02,40,8.70
2013,09,17,02,41,8.70
2013,09,17,02,42,8.70
2013,09,17,02,43,8.70
2013,09,17,02,44,8.70
2013,09,17,02,45,8.70
2013,09,17,02,46,8.70
2013,09,17,02,47,8.70
2013,09,17,02,48,8.70
2013,09,17,02,49,8.70
2013,09,17,02,50,8.70
2013,09,17,02,51,8.70
2013,09,17,02,52,8.70
2013,09,17,02,53,8.70
2013,09,17,02,54,8.70
2013,09,17,02,55,8.70
2013,09,17,02,56,8.70
2013,09,17,02,57,8.70
2013,09,17,02,58,8.70
2013,09,17,02,59,8.70
2013,09,17,03,00,8.70
2013,09,17,03,01,8.70
2013,09,17,03,02,8.70
2013,09,17,03,03,8.70
2013,09,17,03,04,8.70
2013,09,17,03,05,8.70
2013,09,17,03,06,8.70
2013,09,17,03,07,8.70
2013,09,17,03,08,8.70
2013,09,17,03,09,8.70
2013,09,17,03,10,8.70
2013,09,17,03,11,8.70
2013,09,17,03,12,8.70
2013,09,17,03,13,8.70
2013,09,17,03,14,8.70
2013,09,17,03,15,8.70
2013,09,17,03,16,8.70
2013,09,17,03,17,8.70
2013,09,17,03,18,8.70
2013,09,17,03,19,8.70
2013,09,17,03,20,8.70
2013,09,17,03,21,8.70
2013,09,17,03,22,8.70
2013,09,17,03,23,8.80
2013,09,17,03,24,8.80
2013,09,17,03,25,8.80
2013,09,17,03,26,8.80
2013,09,17,03,27,8.80
2013,09,17,03,28,8.80
2013,09,17,03,29,8.80
2013,09,17,03,30,8.80
2013,09,17,03,31,8.90
2013,09,17,03,32,8.90
2013,09,17,03,33,8.90
2013,09,17,03,34,8.90
2013,09,17,03,35,8.90
2013,09,17,03,36,8.90
2013,09,17,03,37,8.90
2013,09,17,03,38,8.90
2013,09,17,03,39,8.90
2013,09,17,03,40,8.90
2013,09,17,03,41,8.90
2013,09,17,03,42,8.90
2013,09,17,03,43,8.90
2013,09,17,03,44,8.90
2013,09,17,03,45,8.90
2013,09,17,03,46,8.90
2013,09,17,03,47,8.90
2013,09,17,03,48,8.90
2013,09,17,03,49,8.90
2013,09,17,03,50,8.90
2013,09,17,03,51,8.90
2013,09,17,03,52,8.90
2013,09,17,03,53,8.90
2013,09,17,03,54,8.90
2013,09,17,03,55,8.90
2013,09,17,03,56,8.90
2013,09,17,03,57,8.90
2013,09,17,03,58,8.90
2013,09,17,03,59,8.90
2013,09,17,04,00,8.90
2013,09,17,04,01,8.90
2013,09,17,04,02,8.90
2013,09,17,04,03,8.90
2013,09,17,04,04,8.90
2013,09,17,04,05,8.90
2013,09,17,04,06,8.90
2013,09,17,04,07,8.90
2013,09,17,04,08,8.90
2013,09,17,04,09,8.90
2013,09,17,04,10,8.90
2013,09,17,04,11,8.90
2013,09,17,04,12,8.90
2013,09,17,04,13,8.90
2013,09,17,04,14,8.90
2013,09,17,04,15,8.90
2013,09,17,04,16,8.90
2013,09,17,04,17,8.90
2013,09,17,04,18,8.90
2013,09,17,04,19,8.90
2013,09,17,04,20,8.90
2013,09,17,04,21,8.90
2013,09,17,04,22,8.90
2013,09,17,04,23,8.90
2013,09,17,04,24,8.90
2013,09,17,04,25,8.90
2013,09,17,04,26,8.90
2013,09,17,04,27,8.90
2013,09,17,04,28,8.90
2013,09,17,04,29,8.90
2013,09,17,04,30,8.90
2013,09,17,04,31,8.90
2013,09,17,04,32,8.90
2013,09,17,04,33,8.90
2013,09,17,04,34,8.90
2013,09,17,04,35,8.90
2013,09,17,04,36,8.90
2013,09,17,04,37,8.90
2013,09,17,04,38,8.90
2013,09,17,04,39,8.90
2013,09,17,04,40,8.90
2013,09,17,04,41,8.90
2013,09,17,04,42,8.90
2013,09,17,04,43,8.90
2013,09,17,04,44,9.00
2013,09,17,04,45,9.00
2013,09,17,04,46,9.00
2013,09,17,04,47,9.00
2013,09,17,04,48,9.00
2013,09,17,04,49,9.00
2013,09,17,04,50,9.00
2013,09,17,04,51,9.00
2013,09,17,04,52,9.00
2013,09,17,04,53,9.00
2013,09,17,04,54,9.00
2013,09,17,04,55,9.00
2013,09,17,04,56,9.00
2013,09,17,04,57,9.00
2013,09,17,04,58,9.00
2013,09,17,04,59,9.00
2013,09,17,05,00,9.00
2013,09,17,05,01,9.00
2013,09,17,05,02,9.00
2013,09,17,05,03,9.00
2013,09,17,05,04,9.00
2013,09,17,05,05,9.00
2013,09,17,05,06,9.00
2013,09,17,05,07,9.00
2013,09,17,05,08,9.00
2013,09,17,05,09,9.00
2013,09,17,05,10,9.00
2013,09,17,05,11,9.00
2013,09,17,05,12,9.00
2013,09,17,05,13,9.00
2013,09,17,05,14,9.00
2013,09,17,05,15,9.00
2013,09,17,05,16,9.00
2013,09,17,05,17,9.00
2013,09,17,05,18,9.00
2013,09,17,05,19,8.90
2013,09,17,05,20,8.90
2013,09,17,05,21,8.90
2013,09,17,05,22,8.90
2013,09,17,05,23,8.90
2013,09,17,05,24,8.90
2013,09,17,05,25,8.90
2013,09,17,05,26,8.90
2013,09,17,05,27,8.90
2013,09,17,05,28,8.90
2013,09,17,05,29,8.90
2013,09,17,05,30,8.90
2013,09,17,05,31,8.90
2013,09,17,05,32,8.80
2013,09,17,05,33,8.80
2013,09,17,05,34,8.80
2013,09,17,05,35,8.80
2013,09,17,05,36,8.80
2013,09,17,05,37,8.80
2013,09,17,05,38,8.80
2013,09,17,05,39,8.80
2013,09,17,05,40,8.80
2013,09,17,05,41,8.80
2013,09,17,05,42,8.80
2013,09,17,05,43,8.80
2013,09,17,05,44,8.80
2013,09,17,05,45,8.80
2013,09,17,05,46,8.80
2013,09,17,05,47,8.70
2013,09,17,05,48,8.70
2013,09,17,05,49,8.70
2013,09,17,05,50,8.70
2013,09,17,05,51,8.70
2013,09,17,05,52,8.70
2013,09,17,05,53,8.70
2013,09,17,05,54,8.70
2013,09,17,05,55,8.70
2013,09,17,05,56,8.70
2013,09,17,05,57,8.70
2013,09,17,05,58,8.70
2013,09,17,05,59,8.70
2013,09,17,06,00,8.70
2013,09,17,06,01,8.70
2013,09,17,06,02,8.80
2013,09,17,06,03,8.80
2013,09,17,06,04,8.80
2013,09,17,06,05,8.80
2013,09,17,06,06,8.80
2013,09,17,06,07,8.80
2013,09,17,06,08,8.80
2013,09,17,06,09,8.80
2013,09,17,06,10,8.80
2013,09,17,06,11,8.80
2013,09,17,06,12,8.80
2013,09,17,06,13,8.80
2013,09,17,06,14,8.80
2013,09,17,06,15,8.80
2013,09,17,06,16,8.80
2013,09,17,06,17,8.80
2013,09,17,06,18,8.80
2013,09,17,06,19,8.80
2013,09,17,06,20,8.80
2013,09,17,06,21,8.80
2013,09,17,06,22,8.80
2013,09,17,06,23,8.80
2013,09,17,06,24,8.80
2013,09,17,06,25,8.80
2013,09,17,06,26,8.80
2013,09,17,06,27,8.80
2013,09,17,06,28,8.80
2013,09,17,06,29,8.80
2013,09,17,06,30,8.80
2013,09,17,06,31,8.80
2013,09,17,06,32,8.80
2013,09,17,06,33,8.80
2013,09,17,06,34,8.80
2013,09,17,06,35,8.80
2013,09,17,06,36,8.80
2013,09,17,06,37,8.80
2013,09,17,06,38,8.80
2013,09,17,06,39,8.80
2013,09,17,06,40,8.80
2013,09,17,06,41,8.80
2013,09,17,06,42,8.90
2013,09,17,06,43,8.90
2013,09,17,06,44,8.90
2013,09,17,06,45,8.90
2013,09,17,06,46,8.90
2013,09,17,06,47,8.90
2013,09,17,06,48,8.90
2013,09,17,06,49,8.90
2013,09,17,06,50,8.90
2013,09,17,06,51,8.90
2013,09,17,06,52,8.90
2013,09,17,06,53,8.90
2013,09,17,06,54,8.90
2013,09,17,06,55,8.90
2013,09,17,06,56,8.90
2013,09,17,06,57,8.90
2013,09,17,06,58,8.90
2013,09,17,06,59,8.90
2013,09,17,07,00,8.90
2013,09,17,07,01,8.90
2013,09,17,07,02,8.90
2013,09,17,07,03,8.90
2013,09,17,07,04,8.90
2013,09,17,07,05,8.90
2013,09,17,07,06,8.90
2013,09,17,07,07,8.90
2013,09,17,07,08,9.00
2013,09,17,07,09,9.00
2013,09,17,07,10,9.00
2013,09,17,07,11,9.00
2013,09,17,07,12,9.00
2013,09,17,07,13,9.00
2013,09,17,07,14,9.00
2013,09,17,07,15,9.10
2013,09,17,07,16,9.00
2013,09,17,07,17,9.10
2013,09,17,07,18,9.10
2013,09,17,07,19,9.10
2013,09,17,07,20,9.10
2013,09,17,07,21,9.10
2013,09,17,07,22,9.10
2013,09,17,07,23,9.10
2013,09,17,07,24,9.10
2013,09,17,07,25,9.20
2013,09,17,07,26,9.20
2013,09,17,07,27,9.20
2013,09,17,07,28,9.20
2013,09,17,07,29,9.20
2013,09,17,07,30,9.20
2013,09,17,07,31,9.20
2013,09,17,07,32,9.20
2013,09,17,07,33,9.20
2013,09,17,07,34,9.20
2013,09,17,07,35,9.20
2013,09,17,07,36,9.20
2013,09,17,07,37,9.20
2013,09,17,07,38,9.30
2013,09,17,07,39,9.30
2013,09,17,07,40,9.30
2013,09,17,07,41,9.30
2013,09,17,07,42,9.30
2013,09,17,07,43,9.30
2013,09,17,07,44,9.30
2013,09,17,07,45,9.30
2013,09,17,07,46,9.30
2013,09,17,07,47,9.30
2013,09,17,07,48,9.30
2013,09,17,07,49,9.30
2013,09,17,07,50,9.30
2013,09,17,07,51,9.30
2013,09,17,07,52,9.30
2013,09,17,07,53,9.30
2013,09,17,07,54,9.30
2013,09,17,07,55,9.30
2013,09,17,07,56,9.30
2013,09,17,07,57,9.30
2013,09,17,07,58,9.40
2013,09,17,07,59,9.40
2013,09,17,08,00,9.40
2013,09,17,08,01,9.40
2013,09,17,08,02,9.40
2013,09,17,08,03,9.40
2013,09,17,08,04,9.40
2013,09,17,08,05,9.40
2013,09,17,08,06,9.50
2013,09,17,08,07,9.50
2013,09,17,08,08,9.50
2013,09,17,08,09,9.50
2013,09,17,08,10,9.50
2013,09,17,08,11,9.60
2013,09,17,08,12,9.60
2013,09,17,08,13,9.60
2013,09,17,08,14,9.60
2013,09,17,08,15,9.60
2013,09,17,08,16,9.60
2013,09,17,08,17,9.60
2013,09,17,08,18,9.70
2013,09,17,08,19,9.70
2013,09,17,08,20,9.70
2013,09,17,08,21,9.70
2013,09,17,08,22,9.70
2013,09,17,08,23,9.70
2013,09,17,08,24,9.70
2013,09,17,08,25,9.80
2013,09,17,08,26,9.80
2013,09,17,08,27,9.80
2013,09,17,08,28,9.80
2013,09,17,08,29,9.80
2013,09,17,08,30,9.80
2013,09,17,08,31,9.80
2013,09,17,08,32,9.80
2013,09,17,08,33,9.80
2013,09,17,08,34,9.80
2013,09,17,08,35,9.80
2013,09,17,08,36,9.80
2013,09,17,08,37,9.80
2013,09,17,08,38,9.80
2013,09,17,08,39,9.80
2013,09,17,08,40,9.80
2013,09,17,08,41,9.80
2013,09,17,08,42,9.80
2013,09,17,08,43,9.80
2013,09,17,08,44,9.80
2013,09,17,08,45,9.80
2013,09,17,08,46,9.90
2013,09,17,08,47,9.90
2013,09,17,08,48,9.90
2013,09,17,08,49,9.90
2013,09,17,08,50,9.90
2013,09,17,08,51,9.90
2013,09,17,08,52,9.90
2013,09,17,08,53,9.90
2013,09,17,08,54,9.90
2013,09,17,08,55,9.90
2013,09,17,08,56,9.90
2013,09,17,08,57,10.00
2013,09,17,08,58,10.00
2013,09,17,08,59,10.00
2013,09,17,09,00,10.00
2013,09,17,09,01,10.00
2013,09,17,09,02,10.00
2013,09,17,09,03,10.00
2013,09,17,09,04,10.00
2013,09,17,09,05,10.00
2013,09,17,09,06,10.00
2013,09,17,09,07,10.10
2013,09,17,09,08,10.10
2013,09,17,09,09,10.10
2013,09,17,09,10,10.10
2013,09,17,09,11,10.10
2013,09,17,09,12,10.10
2013,09,17,09,13,10.10
2013,09,17,09,14,10.10
2013,09,17,09,15,10.10
2013,09,17,09,16,10.20
2013,09,17,09,17,10.20
2013,09,17,09,18,10.20
2013,09,17,09,19,10.20
2013,09,17,09,20,10.20
2013,09,17,09,21,10.20
2013,09,17,09,22,10.20
2013,09,17,09,23,10.20
2013,09,17,09,24,10.20
2013,09,17,09,25,10.20
2013,09,17,09,26,10.20
2013,09,17,09,27,10.20
2013,09,17,09,28,10.20
2013,09,17,09,29,10.20
2013,09,17,09,30,10.20
2013,09,17,09,31,10.20
2013,09,17,09,32,10.20
2013,09,17,09,33,10.20
2013,09,17,09,34,10.30
2013,09,17,09,35,10.30
2013,09,17,09,36,10.30
2013,09,17,09,37,10.30
2013,09,17,09,38,10.30
2013,09,17,09,39,10.30
2013,09,17,09,40,10.30
2013,09,17,09,41,10.30
2013,09,17,09,42,10.30
2013,09,17,09,43,10.30
2013,09,17,09,44,10.40
2013,09,17,09,45,10.40
2013,09,17,09,46,10.40
2013,09,17,09,47,10.40
2013,09,17,09,48,10.40
2013,09,17,09,49,10.40
2013,09,17,09,50,10.40
2013,09,17,09,51,10.40
2013,09,17,09,52,10.40
2013,09,17,09,53,10.40
2013,09,17,09,54,10.40
2013,09,17,09,55,10.40
2013,09,17,09,56,10.40
2013,09,17,09,57,10.40
2013,09,17,09,58,10.40
2013,09,17,09,59,10.40
2013,09,17,10,00,10.40
2013,09,17,10,01,10.40
2013,09,17,10,02,10.50
2013,09,17,10,03,10.50
2013,09,17,10,04,10.50
2013,09,17,10,05,10.50
2013,09,17,10,06,10.60
2013,09,17,10,07,10.60
2013,09,17,10,08,10.60
2013,09,17,10,09,10.70
2013,09,17,10,10,10.70
2013,09,17,10,11,10.70
2013,09,17,10,12,10.70
2013,09,17,10,13,10.70
2013,09,17,10,14,10.80
2013,09,17,10,15,10.80
2013,09,17,10,16,10.80
2013,09,17,10,17,10.80
2013,09,17,10,18,10.80
2013,09,17,10,19,10.80
2013,09,17,10,20,10.80
2013,09,17,10,21,10.80
2013,09,17,10,22,10.80
2013,09,17,10,23,10.80
2013,09,17,10,24,10.80
2013,09,17,10,25,10.80
2013,09,17,10,26,10.80
2013,09,17,10,27,10.80
2013,09,17,10,28,10.80
2013,09,17,10,29,10.80
2013,09,17,10,30,10.90
2013,09,17,10,31,10.90
2013,09,17,10,32,10.90
2013,09,17,10,33,11.00
2013,09,17,10,34,11.00
2013,09,17,10,35,11.00
2013,09,17,10,36,11.10
2013,09,17,10,37,11.10
2013,09,17,10,38,11.20
2013,09,17,10,39,11.20
2013,09,17,10,40,11.30
2013,09,17,10,41,11.30
2013,09,17,10,42,11.40
2013,09,17,10,43,11.40
2013,09,17,10,44,11.40
2013,09,17,10,45,11.40
2013,09,17,10,46,11.50
2013,09,17,10,47,11.50
2013,09,17,10,48,11.60
2013,09,17,10,49,11.60
2013,09,17,10,50,11.60
2013,09,17,10,51,11.70
2013,09,17,10,52,11.80
2013,09,17,10,53,11.90
2013,09,17,10,54,11.90
2013,09,17,10,55,12.00
2013,09,17,10,56,12.10
2013,09,17,10,57,12.20
2013,09,17,10,58,12.30
2013,09,17,10,59,12.30
2013,09,17,11,00,12.30
2013,09,17,11,01,12.40
2013,09,17,11,02,12.50
2013,09,17,11,03,12.50
2013,09,17,11,04,12.60
2013,09,17,11,05,12.70
2013,09,17,11,06,12.70
2013,09,17,11,07,12.80
2013,09,17,11,08,12.90
2013,09,17,11,09,13.00
2013,09,17,11,10,13.20
2013,09,17,11,11,13.30
2013,09,17,11,12,13.40
2013,09,17,11,13,13.50
2013,09,17,11,14,13.60
2013,09,17,11,15,13.70
2013,09,17,11,16,13.80
2013,09,17,11,17,13.90
2013,09,17,11,18,13.90
2013,09,17,11,19,13.90
2013,09,17,11,20,14.00
2013,09,17,11,21,14.00
2013,09,17,11,22,14.10
2013,09,17,11,23,14.10
2013,09,17,11,24,14.20
2013,09,17,11,25,14.20
2013,09,17,11,26,14.30
2013,09,17,11,27,14.30
2013,09,17,11,28,14.40
2013,09,17,11,29,14.50
2013,09,17,11,30,14.50
2013,09,17,11,31,14.60
2013,09,17,11,32,14.60
2013,09,17,11,33,14.60
2013,09,17,11,34,14.70
2013,09,17,11,35,14.70
2013,09,17,11,36,14.80
2013,09,17,11,37,14.80
2013,09,17,11,38,14.90
2013,09,17,11,39,14.90
2013,09,17,11,40,15.00
2013,09,17,11,41,15.00
2013,09,17,11,42,15.10
2013,09,17,11,43,15.20
2013,09,17,11,44,15.20
2013,09,17,11,45,15.30
2013,09,17,11,46,15.40
2013,09,17,11,47,15.40
2013,09,17,11,48,15.50
2013,09,17,11,49,15.60
2013,09,17,11,50,15.60
2013,09,17,11,51,15.70
2013,09,17,11,52,15.80
2013,09,17,11,53,15.90
2013,09,17,11,54,16.00
2013,09,17,11,55,16.00
2013,09,17,11,56,16.10
2013,09,17,11,57,16.20
2013,09,17,11,58,16.40
2013,09,17,11,59,16.50
2013,09,17,12,00,16.60
2013,09,17,12,01,16.70
2013,09,17,12,02,16.70
2013,09,17,12,03,16.80
2013,09,17,12,04,16.90
2013,09,17,12,05,16.90
2013,09,17,12,06,17.00
2013,09,17,12,07,17.10
2013,09,17,12,08,17.20
2013,09,17,12,09,17.20
2013,09,17,12,10,17.30
2013,09,17,12,11,17.40
2013,09,17,12,12,17.40
2013,09,17,12,13,17.30
2013,09,17,12,14,17.40
2013,09,17,12,15,17.40
2013,09,17,12,16,17.40
2013,09,17,12,17,17.40
2013,09,17,12,18,17.30
2013,09,17,12,19,17.20
2013,09,17,12,20,17.20
2013,09,17,12,21,17.20
2013,09,17,12,22,17.20
2013,09,17,12,23,17.20
2013,09,17,12,24,17.20
2013,09,17,12,25,17.10
2013,09,17,12,26,17.10
2013,09,17,12,27,17.10
2013,09,17,12,28,17.10
2013,09,17,12,29,17.10
2013,09,17,12,30,17.10
2013,09,17,12,31,17.10
2013,09,17,12,32,17.10
2013,09,17,12,33,17.20
2013,09,17,12,34,17.20
2013,09,17,12,35,17.30
2013,09,17,12,36,17.30
2013,09,17,12,37,17.30
2013,09,17,12,38,17.30
2013,09,17,12,39,17.30
2013,09,17,12,40,17.30
2013,09,17,12,41,17.30
2013,09,17,12,42,17.30
2013,09,17,12,43,17.30
2013,09,17,12,44,17.30
2013,09,17,12,45,17.30
2013,09,17,12,46,17.30
2013,09,17,12,47,17.30
2013,09,17,12,48,17.30
2013,09,17,12,49,17.30
2013,09,17,12,50,17.40
2013,09,17,12,51,17.40
2013,09,17,12,52,17.40
2013,09,17,12,53,17.40
2013,09,17,12,54,17.40
2013,09,17,12,55,17.40
2013,09,17,12,56,17.40
2013,09,17,12,57,17.50
2013,09,17,12,58,17.50
2013,09,17,12,59,17.50
2013,09,17,13,00,17.50
2013,09,17,13,01,17.50
2013,09,17,13,02,17.60
2013,09,17,13,03,17.60
2013,09,17,13,04,17.60
2013,09,17,13,05,17.60
2013,09,17,13,06,17.60
2013,09,17,13,07,17.70
2013,09,17,13,08,17.70
2013,09,17,13,09,17.70
2013,09,17,13,10,17.70
2013,09,17,13,11,17.70
2013,09,17,13,12,17.70
2013,09,17,13,13,17.70
2013,09,17,13,14,17.70
2013,09,17,13,15,17.70
2013,09,17,13,16,17.70
2013,09,17,13,17,17.70
2013,09,17,13,18,17.80
2013,09,17,13,19,17.80
2013,09,17,13,20,17.90
2013,09,17,13,21,18.00
2013,09,17,13,22,18.10
2013,09,17,13,23,18.20
2013,09,17,13,24,18.30
2013,09,17,13,25,18.40
2013,09,17,13,26,18.50
2013,09,17,13,27,18.60
2013,09,17,13,28,18.70
2013,09,17,13,29,18.70
2013,09,17,13,30,18.80
2013,09,17,13,31,18.90
2013,09,17,13,32,18.90
2013,09,17,13,33,18.90
2013,09,17,13,34,18.90
2013,09,17,13,35,18.80
2013,09,17,13,36,18.80
2013,09,17,13,37,18.90
2013,09,17,13,38,18.90
2013,09,17,13,39,18.90
2013,09,17,13,40,18.90
2013,09,17,13,41,18.90
2013,09,17,13,42,18.90
2013,09,17,13,43,18.80
2013,09,17,13,44,18.70
2013,09,17,13,45,18.60
2013,09,17,13,46,18.60
2013,09,17,13,47,18.50
2013,09,17,13,48,18.50
2013,09,17,13,49,18.40
2013,09,17,13,50,18.40
2013,09,17,13,51,18.30
2013,09,17,13,52,18.30
2013,09,17,13,53,18.20
2013,09,17,13,54,18.20
2013,09,17,13,55,18.20
2013,09,17,13,56,18.20
2013,09,17,13,57,18.30
2013,09,17,13,58,18.30
2013,09,17,13,59,18.40
2013,09,17,14,00,18.40
2013,09,17,14,01,18.40
2013,09,17,14,02,18.50
2013,09,17,14,03,18.50
2013,09,17,14,04,18.60
2013,09,17,14,05,18.60
2013,09,17,14,06,18.70
2013,09,17,14,07,18.70
2013,09,17,14,08,18.80
2013,09,17,14,09,18.80
2013,09,17,14,10,18.90
2013,09,17,14,11,19.00
2013,09,17,14,12,19.10
2013,09,17,14,13,19.10
2013,09,17,14,14,19.20
2013,09,17,14,15,19.20
2013,09,17,14,16,19.20
2013,09,17,14,17,19.10
2013,09,17,14,18,19.10
2013,09,17,14,19,19.10
2013,09,17,14,20,19.10
2013,09,17,14,21,19.00
2013,09,17,14,22,18.90
2013,09,17,14,23,18.90
2013,09,17,14,24,18.80
2013,09,17,14,25,18.80
2013,09,17,14,26,18.70
2013,09,17,14,27,18.70
2013,09,17,14,28,18.80
2013,09,17,14,29,18.80
2013,09,17,14,30,18.90
2013,09,17,14,31,19.00
2013,09,17,14,32,19.10
2013,09,17,14,33,19.20
2013,09,17,14,34,19.10
2013,09,17,14,35,19.10
2013,09,17,14,36,19.00
2013,09,17,14,37,18.90
2013,09,17,14,38,18.90
2013,09,17,14,39,18.80
2013,09,17,14,40,18.80
2013,09,17,14,41,18.80
2013,09,17,14,42,18.80
2013,09,17,14,43,18.80
2013,09,17,14,44,18.80
2013,09,17,14,45,18.70
2013,09,17,14,46,18.70
2013,09,17,14,47,18.70
2013,09,17,14,48,18.70
2013,09,17,14,49,18.70
2013,09,17,14,50,18.70
2013,09,17,14,51,18.70
2013,09,17,14,52,18.70
2013,09,17,14,53,18.70
2013,09,17,14,54,18.70
2013,09,17,14,55,18.70
2013,09,17,14,56,18.70
2013,09,17,14,57,18.70
2013,09,17,14,58,18.70
2013,09,17,14,59,18.60
2013,09,17,15,00,18.50
2013,09,17,15,01,18.50
2013,09,17,15,02,18.40
2013,09,17,15,03,18.40
2013,09,17,15,04,18.30
2013,09,17,15,05,18.30
2013,09,17,15,06,18.30
2013,09,17,15,07,18.30
2013,09,17,15,08,18.20
2013,09,17,15,09,18.20
2013,09,17,15,10,18.10
2013,09,17,15,11,18.10
2013,09,17,15,12,18.00
2013,09,17,15,13,18.00
2013,09,17,15,14,17.90
2013,09,17,15,15,17.90
2013,09,17,15,16,17.90
2013,09,17,15,17,17.90
2013,09,17,15,18,17.90
2013,09,17,15,19,17.90
2013,09,17,15,20,17.90
2013,09,17,15,21,17.90
2013,09,17,15,22,18.00
2013,09,17,15,23,18.00
2013,09,17,15,24,18.00
2013,09,17,15,25,18.00
2013,09,17,15,26,18.00
2013,09,17,15,27,17.90
2013,09,17,15,28,17.90
2013,09,17,15,29,17.80
2013,09,17,15,30,17.80
2013,09,17,15,31,17.80
2013,09,17,15,32,17.80
2013,09,17,15,33,17.80
2013,09,17,15,34,17.80
2013,09,17,15,35,17.90
2013,09,17,15,36,17.90
2013,09,17,15,37,17.90
2013,09,17,15,38,17.90
2013,09,17,15,39,18.00
2013,09,17,15,40,18.00
2013,09,17,15,41,18.00
2013,09,17,15,42,18.10
2013,09,17,15,43,18.10
2013,09,17,15,44,18.10
2013,09,17,15,45,18.20
2013,09,17,15,46,18.20
2013,09,17,15,47,18.20
2013,09,17,15,48,18.10
2013,09,17,15,49,18.00
2013,09,17,15,50,17.80
2013,09,17,15,51,17.70
2013,09,17,15,52,17.60
2013,09,17,15,53,17.50
2013,09,17,15,54,17.30
2013,09,17,15,55,17.10
2013,09,17,15,56,16.90
2013,09,17,15,57,16.70
2013,09,17,15,58,16.60
2013,09,17,15,59,16.50
2013,09,17,16,00,16.40
2013,09,17,16,01,16.30
2013,09,17,16,02,16.20
2013,09,17,16,03,16.10
2013,09,17,16,04,16.00
2013,09,17,16,05,15.90
2013,09,17,16,06,15.80
2013,09,17,16,07,15.80
2013,09,17,16,08,15.70
2013,09,17,16,09,15.70
2013,09,17,16,10,15.60
2013,09,17,16,11,15.60
2013,09,17,16,12,15.60
2013,09,17,16,13,15.60
2013,09,17,16,14,15.60
2013,09,17,16,15,15.70
2013,09,17,16,16,15.80
2013,09,17,16,17,15.80
2013,09,17,16,18,15.90
2013,09,17,16,19,15.90
2013,09,17,16,20,15.90
2013,09,17,16,21,15.90
2013,09,17,16,22,16.00
2013,09,17,16,23,16.00
2013,09,17,16,24,16.00
2013,09,17,16,25,16.00
2013,09,17,16,26,16.10
2013,09,17,16,27,16.10
2013,09,17,16,28,16.10
2013,09,17,16,29,16.10
2013,09,17,16,30,16.20
2013,09,17,16,31,16.20
2013,09,17,16,32,16.20
2013,09,17,16,33,16.10
2013,09,17,16,34,16.10
2013,09,17,16,35,16.00
2013,09,17,16,36,16.00
2013,09,17,16,37,15.90
2013,09,17,16,38,15.80
2013,09,17,16,39,15.80
2013,09,17,16,40,15.80
2013,09,17,16,41,15.70
2013,09,17,16,42,15.70
2013,09,17,16,43,15.70
2013,09,17,16,44,15.80
2013,09,17,16,45,15.80
2013,09,17,16,46,15.90
2013,09,17,16,47,15.90
2013,09,17,16,48,16.00
2013,09,17,16,49,16.10
2013,09,17,16,50,16.30
2013,09,17,16,51,16.40
2013,09,17,16,52,16.60
2013,09,17,16,53,16.70
2013,09,17,16,54,16.80
2013,09,17,16,55,16.80
2013,09,17,16,56,16.90
2013,09,17,16,57,17.00
2013,09,17,16,58,17.10
2013,09,17,16,59,17.20
2013,09,17,17,00,17.30
2013,09,17,17,01,17.40
2013,09,17,17,02,17.40
2013,09,17,17,03,17.50
2013,09,17,17,04,17.70
2013,09,17,17,05,17.70
2013,09,17,17,06,17.80
2013,09,17,17,07,17.80
2013,09,17,17,08,17.80
2013,09,17,17,09,17.90
2013,09,17,17,10,17.80
2013,09,17,17,11,17.80
2013,09,17,17,12,17.80
2013,09,17,17,13,17.80
2013,09,17,17,14,17.80
2013,09,17,17,15,17.80
2013,09,17,17,16,17.80
2013,09,17,17,17,17.80
2013,09,17,17,18,17.80
2013,09,17,17,19,17.80
2013,09,17,17,20,17.80
2013,09,17,17,21,17.80
2013,09,17,17,22,17.70
2013,09,17,17,23,17.70
2013,09,17,17,24,17.60
2013,09,17,17,25,17.50
2013,09,17,17,26,17.50
2013,09,17,17,27,17.40
2013,09,17,17,28,17.40
2013,09,17,17,29,17.30
2013,09,17,17,30,17.30
2013,09,17,17,31,17.30
2013,09,17,17,32,17.20
2013,09,17,17,33,17.20
2013,09,17,17,34,17.10
2013,09,17,17,35,17.10
2013,09,17,17,36,17.10
2013,09,17,17,37,17.00
2013,09,17,17,38,17.00
2013,09,17,17,39,16.90
2013,09,17,17,40,16.80
2013,09,17,17,41,16.70
2013,09,17,17,42,16.70